Time,TemperatureF,DewpointF,PressureIn,WindDirection,WindDirectionDegrees,WindSpeedMPH,WindSpeedGustMPH,Humidity,HourlyPrecipIn,Conditions,Clouds,dailyrainin,SolarRadiationWatts/m^2,SoftwareType,DateUTC
2013-04-04 00:22:00,46.0,12.0,-100.00,ESE,109,2.0,8.0,25,0.00,,,0.00,589.000000,,2013-04-04 00:22:00,
2013-04-04 00:32:00,46.0,12.0,-100.00,ESE,109,2.0,8.0,25,0.00,,,0.00,589.000000,,2013-04-04 00:32:00,
2013-04-04 00:43:00,46.0,12.0,-100.00,ESE,109,2.0,8.0,25,0.00,,,0.00,589.000000,,2013-04-04 00:43:00,
2013-04-04 00:52:00,46.0,12.0,-100.00,ESE,109,2.0,8.0,25,0.00,,,0.00,589.000000,,2013-04-04 00:52:00,
2013-04-04 01:22:00,44.0,13.0,-100.00,NNW,336,3.0,8.0,28,0.00,,,0.00,488.000000,,2013-04-04 01:22:00,
2013-04-04 01:32:00,44.0,13.0,-100.00,NNW,336,3.0,8.0,28,0.00,,,0.00,488.000000,,2013-04-04 01:32:00,
2013-04-04 01:43:00,44.0,13.0,-100.00,NNW,336,3.0,8.0,28,0.00,,,0.00,488.000000,,2013-04-04 01:43:00,
2013-04-04 01:52:00,44.0,13.0,-100.00,NNW,336,3.0,8.0,28,0.00,,,0.00,488.000000,,2013-04-04 01:52:00,
2013-04-04 02:22:00,41.0,10.0,-100.00,West,273,4.0,9.0,28,0.00,,,-99.99,347.000000,,2013-04-04 02:22:00,
2013-04-04 02:32:00,41.0,10.0,-100.00,West,273,4.0,9.0,28,0.00,,,-99.99,347.000000,,2013-04-04 02:32:00,
2013-04-04 02:42:00,41.0,10.0,-100.00,West,273,4.0,9.0,28,0.00,,,-99.99,347.000000,,2013-04-04 02:42:00,
2013-04-04 02:52:00,41.0,10.0,-100.00,West,273,4.0,9.0,28,0.00,,,-99.99,347.000000,,2013-04-04 02:52:00,
2013-04-04 03:22:00,40.0,12.0,-100.00,ESE,108,2.0,6.0,31,0.00,,,0.00,195.000000,,2013-04-04 03:22:00,
2013-04-04 03:33:00,40.0,12.0,-100.00,ESE,108,2.0,6.0,31,0.00,,,0.00,195.000000,,2013-04-04 03:33:00,
2013-04-04 03:43:00,40.0,12.0,-100.00,ESE,108,2.0,6.0,31,0.00,,,0.00,195.000000,,2013-04-04 03:43:00,
2013-04-04 03:53:00,40.0,12.0,-100.00,ESE,108,2.0,6.0,31,0.00,,,0.00,195.000000,,2013-04-04 03:53:00,
2013-04-04 04:22:00,33.0,11.0,-100.00,SSW,196,1.0,5.0,40,0.00,,,0.00,53.000000,,2013-04-04 04:22:00,
2013-04-04 04:33:00,33.0,11.0,-100.00,SSW,196,1.0,5.0,40,0.00,,,0.00,53.000000,,2013-04-04 04:33:00,
2013-04-04 04:52:00,33.0,11.0,-100.00,SSW,196,1.0,5.0,40,0.00,,,0.00,53.000000,,2013-04-04 04:52:00,
2013-04-04 05:32:00,25.0,11.0,-100.00,SE,137,1.0,4.0,54,0.00,,,0.00,5.000000,,2013-04-04 05:32:00,
2013-04-04 05:42:00,25.0,11.0,-100.00,SE,137,1.0,4.0,54,0.00,,,0.00,5.000000,,2013-04-04 05:42:00,
2013-04-04 05:52:00,25.0,11.0,-100.00,SE,137,1.0,4.0,54,0.00,,,0.00,5.000000,,2013-04-04 05:52:00,
2013-04-04 06:22:00,22.0,12.0,-100.00,SE,129,1.0,4.0,64,0.00,,,0.00,0.000000,,2013-04-04 06:22:00,
2013-04-04 06:32:00,22.0,12.0,-100.00,SE,129,1.0,4.0,64,0.00,,,0.00,0.000000,,2013-04-04 06:32:00,
2013-04-04 06:42:00,22.0,12.0,-100.00,SE,129,1.0,4.0,64,0.00,,,0.00,0.000000,,2013-04-04 06:42:00,
2013-04-04 06:52:00,22.0,12.0,-100.00,SE,129,1.0,4.0,64,0.00,,,0.00,0.000000,,2013-04-04 06:52:00,
2013-04-04 07:22:00,18.0,10.0,-100.00,SE,137,0.0,3.0,69,0.00,,,0.00,0.000000,,2013-04-04 07:22:00,
2013-04-04 07:32:00,18.0,10.0,-100.00,SE,137,0.0,3.0,69,0.00,,,0.00,0.000000,,2013-04-04 07:32:00,
2013-04-04 07:42:00,18.0,10.0,-100.00,SE,137,0.0,3.0,69,0.00,,,0.00,0.000000,,2013-04-04 07:42:00,
2013-04-04 07:52:00,18.0,10.0,-100.00,SE,137,0.0,3.0,69,0.00,,,0.00,0.000000,,2013-04-04 07:52:00,
2013-04-04 08:22:00,16.0,9.0,-100.00,SW,229,1.0,4.0,72,0.00,,,0.00,0.000000,,2013-04-04 08:22:00,
2013-04-04 08:32:00,16.0,9.0,-100.00,SW,229,1.0,4.0,72,0.00,,,0.00,0.000000,,2013-04-04 08:32:00,
2013-04-04 08:42:00,16.0,9.0,-100.00,SW,229,1.0,4.0,72,0.00,,,0.00,0.000000,,2013-04-04 08:42:00,
2013-04-04 08:52:00,16.0,9.0,-100.00,SW,229,1.0,4.0,72,0.00,,,0.00,0.000000,,2013-04-04 08:52:00,
2013-04-04 09:22:00,17.0,8.0,-100.00,SSW,192,2.0,6.0,68,0.00,,,0.00,0.000000,,2013-04-04 09:22:00,
2013-04-04 09:33:00,17.0,8.0,-100.00,SSW,192,2.0,6.0,68,0.00,,,0.00,0.000000,,2013-04-04 09:33:00,
2013-04-04 09:42:00,17.0,8.0,-100.00,SSW,192,2.0,6.0,68,0.00,,,0.00,0.000000,,2013-04-04 09:42:00,
2013-04-04 09:52:00,17.0,8.0,-100.00,SSW,192,2.0,6.0,68,0.00,,,0.00,0.000000,,2013-04-04 09:52:00,
2013-04-04 10:23:00,14.0,7.0,-100.00,SSE,159,2.0,4.0,73,0.00,,,0.00,0.000000,,2013-04-04 10:23:00,
2013-04-04 10:33:00,14.0,7.0,-100.00,SSE,159,2.0,4.0,73,0.00,,,0.00,0.000000,,2013-04-04 10:33:00,
2013-04-04 10:42:00,14.0,7.0,-100.00,SSE,159,2.0,4.0,73,0.00,,,0.00,0.000000,,2013-04-04 10:42:00,
2013-04-04 10:53:00,14.0,7.0,-100.00,SSE,159,2.0,4.0,73,0.00,,,0.00,0.000000,,2013-04-04 10:53:00,
2013-04-04 11:22:00,16.0,7.0,-100.00,SW,235,2.0,7.0,67,0.00,,,0.00,0.000000,,2013-04-04 11:22:00,
2013-04-04 11:32:00,16.0,7.0,-100.00,SW,235,2.0,7.0,67,0.00,,,0.00,0.000000,,2013-04-04 11:32:00,
2013-04-04 11:42:00,16.0,7.0,-100.00,SW,235,2.0,7.0,67,0.00,,,0.00,0.000000,,2013-04-04 11:42:00,
2013-04-04 11:52:00,16.0,7.0,-100.00,SW,235,2.0,7.0,67,0.00,,,0.00,0.000000,,2013-04-04 11:52:00,
2013-04-04 12:22:00,12.0,5.0,-100.00,SW,224,1.0,5.0,74,0.00,,,0.00,0.000000,,2013-04-04 12:22:00,
2013-04-04 12:32:00,12.0,5.0,-100.00,SW,224,1.0,5.0,74,0.00,,,0.00,0.000000,,2013-04-04 12:32:00,
2013-04-04 12:42:00,12.0,5.0,-100.00,SW,224,1.0,5.0,74,0.00,,,0.00,0.000000,,2013-04-04 12:42:00,
2013-04-04 12:52:00,12.0,5.0,-100.00,SW,224,1.0,5.0,74,0.00,,,0.00,0.000000,,2013-04-04 12:52:00,
2013-04-04 13:22:00,11.0,4.0,-100.00,SSE,163,1.0,9.0,72,0.00,,,0.00,0.000000,,2013-04-04 13:22:00,
2013-04-04 13:32:00,11.0,4.0,-100.00,SSE,163,1.0,9.0,72,0.00,,,0.00,0.000000,,2013-04-04 13:32:00,
2013-04-04 13:42:00,11.0,4.0,-100.00,SSE,163,1.0,9.0,72,0.00,,,0.00,0.000000,,2013-04-04 13:42:00,
2013-04-04 13:52:00,11.0,4.0,-100.00,SSE,163,1.0,9.0,72,0.00,,,0.00,0.000000,,2013-04-04 13:52:00,
2013-04-04 14:22:00,12.0,4.0,-100.00,WNW,291,2.0,9.0,69,0.00,,,0.00,0.000000,,2013-04-04 14:22:00,
2013-04-04 14:32:00,12.0,4.0,-100.00,WNW,291,2.0,9.0,69,0.00,,,0.00,0.000000,,2013-04-04 14:32:00,
2013-04-04 14:42:00,12.0,4.0,-100.00,WNW,291,2.0,9.0,69,0.00,,,0.00,0.000000,,2013-04-04 14:42:00,
2013-04-04 14:52:00,12.0,4.0,-100.00,WNW,291,2.0,9.0,69,0.00,,,0.00,0.000000,,2013-04-04 14:52:00,
2013-04-04 15:22:00,17.0,4.0,-100.00,West,269,5.0,13.0,55,0.00,,,0.00,2.000000,,2013-04-04 15:22:00,
2013-04-04 15:33:00,17.0,4.0,-100.00,West,269,5.0,13.0,55,0.00,,,0.00,2.000000,,2013-04-04 15:33:00,
2013-04-04 15:43:00,17.0,4.0,-100.00,West,269,5.0,13.0,55,0.00,,,0.00,2.000000,,2013-04-04 15:43:00,
2013-04-04 15:53:00,17.0,4.0,-100.00,West,269,5.0,13.0,55,0.00,,,0.00,2.000000,,2013-04-04 15:53:00,
2013-04-04 16:23:00,12.0,4.0,-100.00,South,183,2.0,6.0,69,0.00,,,0.00,20.000000,,2013-04-04 16:23:00,
2013-04-04 16:32:00,12.0,4.0,-100.00,South,183,2.0,6.0,69,0.00,,,0.00,20.000000,,2013-04-04 16:32:00,
2013-04-04 16:42:00,12.0,4.0,-100.00,South,183,2.0,6.0,69,0.00,,,0.00,20.000000,,2013-04-04 16:42:00,
2013-04-04 16:52:00,12.0,4.0,-100.00,South,183,2.0,6.0,69,0.00,,,0.00,20.000000,,2013-04-04 16:52:00,
2013-04-04 17:22:00,23.0,5.0,-100.00,West,265,6.0,11.0,46,0.00,,,0.00,205.000000,,2013-04-04 17:22:00,
2013-04-04 17:33:00,23.0,5.0,-100.00,West,265,6.0,11.0,46,0.00,,,0.00,205.000000,,2013-04-04 17:33:00,
2013-04-04 17:42:00,23.0,5.0,-100.00,West,265,6.0,11.0,46,0.00,,,0.00,205.000000,,2013-04-04 17:42:00,
2013-04-04 17:52:00,23.0,5.0,-100.00,West,265,6.0,11.0,46,0.00,,,0.00,205.000000,,2013-04-04 17:52:00,
2013-04-04 18:22:00,24.0,5.0,-100.00,WSW,258,7.0,13.0,43,0.00,,,0.00,382.000000,,2013-04-04 18:22:00,
2013-04-04 18:32:00,24.0,5.0,-100.00,WSW,258,7.0,13.0,43,0.00,,,0.00,382.000000,,2013-04-04 18:32:00,
2013-04-04 18:42:00,24.0,5.0,-100.00,WSW,258,7.0,13.0,43,0.00,,,0.00,382.000000,,2013-04-04 18:42:00,
2013-04-04 18:52:00,24.0,5.0,-100.00,WSW,258,7.0,13.0,43,0.00,,,0.00,382.000000,,2013-04-04 18:52:00,
2013-04-04 19:22:00,29.0,5.0,-100.00,WNW,287,5.0,11.0,36,0.00,,,0.00,515.000000,,2013-04-04 19:22:00,
2013-04-04 19:32:00,29.0,5.0,-100.00,WNW,287,5.0,11.0,36,0.00,,,0.00,515.000000,,2013-04-04 19:32:00,
2013-04-04 19:42:00,29.0,5.0,-100.00,WNW,287,5.0,11.0,36,0.00,,,0.00,515.000000,,2013-04-04 19:42:00,
2013-04-04 19:52:00,29.0,5.0,-100.00,WNW,287,5.0,11.0,36,0.00,,,0.00,515.000000,,2013-04-04 19:52:00,
2013-04-04 20:22:00,34.0,5.0,-100.00,NW,304,2.0,11.0,29,0.00,,,0.00,620.000000,,2013-04-04 20:22:00,
2013-04-04 20:32:00,34.0,5.0,-100.00,NW,304,2.0,11.0,29,0.00,,,0.00,620.000000,,2013-04-04 20:32:00,
2013-04-04 20:42:00,34.0,5.0,-100.00,NW,304,2.0,11.0,29,0.00,,,0.00,620.000000,,2013-04-04 20:42:00,
2013-04-04 20:52:00,34.0,5.0,-100.00,NW,304,2.0,11.0,29,0.00,,,0.00,620.000000,,2013-04-04 20:52:00,
2013-04-04 21:22:00,34.0,6.0,-100.00,NW,323,5.0,11.0,30,0.00,,,0.00,682.000000,,2013-04-04 21:22:00,
2013-04-04 21:32:00,34.0,6.0,-100.00,NW,323,5.0,11.0,30,0.00,,,0.00,682.000000,,2013-04-04 21:32:00,
2013-04-04 21:42:00,34.0,6.0,-100.00,NW,323,5.0,11.0,30,0.00,,,0.00,682.000000,,2013-04-04 21:42:00,
2013-04-04 21:52:00,34.0,6.0,-100.00,NW,323,5.0,11.0,30,0.00,,,0.00,682.000000,,2013-04-04 21:52:00,
2013-04-04 22:22:00,36.0,4.0,-100.00,NNE,21,4.0,12.0,26,0.00,,,0.00,699.000000,,2013-04-04 22:22:00,
2013-04-04 22:33:00,36.0,4.0,-100.00,NNE,21,4.0,12.0,26,0.00,,,0.00,699.000000,,2013-04-04 22:33:00,
2013-04-04 22:42:00,36.0,4.0,-100.00,NNE,21,4.0,12.0,26,0.00,,,0.00,699.000000,,2013-04-04 22:42:00,
2013-04-04 22:52:00,36.0,4.0,-100.00,NNE,21,4.0,12.0,26,0.00,,,0.00,699.000000,,2013-04-04 22:52:00,
2013-04-04 23:22:00,35.0,3.0,-100.00,NE,42,7.0,17.0,25,0.00,,,0.00,670.000000,,2013-04-04 23:22:00,
2013-04-04 23:32:00,35.0,3.0,-100.00,NE,42,7.0,17.0,25,0.00,,,0.00,670.000000,,2013-04-04 23:32:00,
2013-04-04 23:42:00,35.0,3.0,-100.00,NE,42,7.0,17.0,25,0.00,,,0.00,670.000000,,2013-04-04 23:42:00,
2013-04-04 23:52:00,35.0,3.0,-100.00,NE,42,7.0,17.0,25,0.00,,,0.00,670.000000,,2013-04-04 23:52:00,